sat.trackr.live / text

‹ back to catalog

STARLINK-37852

NORAD 69662 · 2026-143P

PAYLOAD ACTIVE UNKNOWN

§ Identity

Operator
Country
US
Launch date
2026-06-21
Launch site
AFWTR
Launch vehicle
Mass (kg)
RCS (m²)

Purposes: comms

External: N2YO · Heavens-Above · Gunter

§ Orbital elements

Epoch: 2026-09-20T01:28:09.922944Z

Period
93.91 min
Inclination
97.2842°
Eccentricity
0.0001511
Mean motion
15.33426547 rev/d
Perigee alt
464.6 km
Apogee alt
466.6 km
Semi-major
6,843.7 km
B*
6.2092e-4
RAAN
306.2298°
Arg perigee
103.8740°
Mean anomaly
256.2671°
Rev number
1,507

§ Raw data

STARLINK-378521 69662U 26143P   26263.06122596  .00020012  00000+0  62092-3 0  99912 69662  97.2842 306.2298 0001511 103.8740 256.2671 15.33426547 15076

JSON: /api/v1/satellites/69662 · /tle

For live sub-satellite position, see the globe view (requires WebGL).

§ Visibility from observer

Set your observer location to see the next 7 days of passes ≥ 10°. The values pass through the URL so the page stays shareable.

No JS? Fill the form by hand. The geolocation button needs JavaScript.